Location: Newark
(47.4417°N, 1.1394°W)
Time: 13:01:05
(UTC+00:00)

Envisat - Pass Details

Date: 17 November 2019
Orbit: 764 x 766 km, 98.1° (Epoch: 08 December)

Event Time Altitude Azimuth Distance (km) Brightness Sun altitude
Rises 18:29:56 0° 182° (S) 3,220 6.3 -20.6°
Reaches altitude 10° 18:32:19 10° 188° (S) 2,298 5.6 -21.0°
Maximum altitude 18:37:11 46° 262° (W) 1,030 4.1 -21.9°
Drops below altitude 10° 18:42:04 10° 335° (NNW) 2,313 5.7 -22.7°
Sets 18:44:29 0° 342° (NNW) 3,244 6.4 -23.1°
